Snowfall_Accumulation
nan nan nan nan nan nan nan nan nan nan nan nan nan nan nan nan nan 0.0 0.0 0.0 0.0 0.1 0.1 0.0 0.0 0.0 0.0 0.0 0.5 0.0 0.5 0.2 0.2 0.3 1.0 0.7 0.5 0.0 0.0 0.0 0.0 0.0 0.3 0.6 0.4 1.8 2.2 0.0 0.0 0.0 0.1 0.0 0.0 0.0
nan nan nan nan nan nan nan nan nan nan nan nan nan nan nan nan nan nan 0.0 0.0 0.0 0.0 0.4 0.0 0.0 0.0 0.0 0.0 0.0 0.0 0.1 0.0 0.0 0.2 0.5 0.4 0.6 0.2 0.1 0.6 0.0 0.3 0.0 0.3 0.1 0.2 0.0 0.0 0.0 0.0 0.0 0.0 0.0 0.0
nan nan nan nan nan nan nan nan nan nan nan nan nan nan nan nan nan nan 0.0 0.0 0.0 0.2 0.4 0.2 0.1 0.0 0.0 0.0 0.0 0.2 0.0 0.0 0.0 0.0 0.0 0.1 1.1 0.0 0.7 0.1 0.0 0.0 0.0 0.1 0.0 0.0 0.0 0.0 0.0 0.0 0.0 0.0 0.0 0.0
nan nan nan nan nan nan nan nan nan nan nan nan nan nan nan nan nan nan 0.0 0.0 0.0 0.0 3.6 1.1 0.0 0.0 0.0 0.0 0.0 0.0 0.0 0.0 0.0 0.0 0.2 0.7 1.1 0.0 0.1 0.0 0.0 0.0 0.0 0.0 0.0 0.0 0.0 0.0 0.0 0.0 0.0 0.0 0.0 0.0
nan nan nan nan nan nan nan nan nan nan nan nan nan nan nan nan nan nan 0.0 0.0 0.0 0.2 4.5 1.2 0.0 0.0 0.0 0.0 0.0 0.0 0.0 0.0 0.0 0.1 0.6 0.9 0.0 0.1 0.1 0.1 0.1 0.0 0.0 0.2 0.2 0.0 0.0 0.0 0.0 0.0 0.0 0.0 0.0 0.0
nan nan nan nan nan nan nan nan nan nan nan nan nan nan nan nan nan 0.0 0.3 0.0 0.0 0.0 1.3 4.5 0.4 0.0 0.0 0.0 0.0 0.0 0.0 0.0 0.0 0.0 0.2 0.0 0.0 0.0 0.5 0.3 0.0 0.0 0.0 0.0 0.0 0.0 0.0 0.0 0.0 0.0 0.0 0.0 0.0 0.0
nan nan nan nan nan nan nan nan nan nan nan nan nan nan nan nan 0.0 0.0 0.0 0.0 nan 0.0 2.4 10.8 2.9 0.1 0.0 0.0 0.0 0.0 0.0 0.0 0.0 0.1 0.3 0.1 0.0 0.0 0.4 0.3 0.0 0.0 0.0 0.0 0.0 0.0 0.0 0.0 0.0 0.0 0.0 0.0 0.0 0.0
nan nan nan nan nan nan nan nan nan nan nan nan nan nan nan nan nan 0.0 0.0 nan nan 0.0 0.6 8.0 4.2 0.3 0.0 0.3 0.5 0.0 0.2 0.1 0.2 0.2 0.2 0.1 0.0 0.2 0.6 0.0 0.0 0.0 0.0 0.0 0.0 0.0 0.0 0.0 0.0 0.0 0.0 0.0 0.0 0.0
nan nan nan nan nan nan nan nan nan nan nan nan nan nan 0.0 0.0 0.1 0.0 nan nan 0.0 0.3 7.6 3.6 1.2 4.0 0.0 0.1 0.1 0.2 0.1 2.0 0.1 0.7 0.1 0.0 0.2 0.5 0.0 0.0 0.0 0.0 0.0 0.0 0.0 0.0 0.0 0.0 0.0 0.0 0.0 0.0 0.0 0.0
nan nan nan nan nan nan nan nan nan nan nan nan 0.0 0.2 21.5 0.3 nan nan 0.0 0.4 0.7 0.2 0.3 1.3 0.0 0.7 0.1 0.2 0.7 0.9 0.5 2.5 4.4 1.1 0.0 0.2 0.0 0.0 0.0 0.0 0.0 0.0 0.0 0.0 0.0 0.0 0.0 0.0 0.0 0.0 0.0 0.0 0.0 0.0
nan nan nan nan nan nan nan nan nan nan nan 0.0 13.5 9.1 0.1 nan 0.0 1.4 24.7 20.2 17.5 13.9 0.4 0.0 0.0 0.4 0.0 0.9 1.2 0.1 1.8 1.9 4.9 0.8 1.0 1.0 0.3 0.2 0.0 0.0 0.0 0.0 0.0 0.0 0.0 0.0 0.0 0.0 0.0 0.0 0.0 0.0 0.0 0.0
nan nan nan nan nan nan nan nan nan 0.0 0.0 0.1 0.2 0.0 0.0 2.5 13.3 26.9 16.9 11.7 5.8 2.8 0.2 0.0 0.0 0.1 0.1 0.0 0.6 1.7 1.8 1.6 1.6 0.0 3.0 1.2 0.2 0.0 0.0 0.0 0.0 0.0 0.0 0.0 0.0 0.0 0.0 0.0 0.0 0.0 0.0 0.0 0.0 0.0
nan nan nan nan nan nan nan nan nan nan nan 0.0 0.4 5.8 10.2 18.0 48.9 15.6 17.4 7.7 3.4 0.4 0.1 0.0 0.6 0.0 0.2 0.0 0.6 0.7 2.4 4.5 0.0 3.6 0.5 0.2 0.0 0.0 0.0 0.0 0.0 0.0 0.0 0.0 0.0 0.0 0.0 0.0 0.0 0.0 0.0 0.0 0.0 0.0
nan nan nan nan nan nan nan nan nan 0.0 0.0 5.2 14.0 43.1 13.9 12.5 3.3 0.6 0.2 0.4 0.2 0.1 0.1 0.2 0.7 0.6 0.1 1.5 0.5 1.6 0.3 0.1 3.5 0.7 0.6 0.3 0.0 0.0 0.0 0.0 0.0 0.0 0.0 0.0 0.0 0.0 0.0 0.0 0.0 0.0 0.1 0.2 0.2 0.3
nan nan nan nan nan nan nan nan nan 0.0 0.1 10.5 5.1 25.8 3.5 0.3 0.2 0.2 0.1 0.0 0.0 0.0 0.3 0.8 0.7 0.9 1.9 2.6 0.7 0.6 1.9 1.2 0.3 0.4 0.3 0.1 0.0 0.0 0.0 0.0 0.0 0.0 0.0 0.0 0.0 0.0 0.1 0.2 0.1 0.1 0.3 0.0 0.0 1.8
nan nan 0.0 nan nan nan nan nan 0.0 0.0 1.4 3.1 3.6 2.2 0.2 0.8 1.5 0.7 0.2 0.2 0.0 0.2 0.1 0.5 2.0 4.8 3.6 1.0 1.1 0.2 0.1 0.2 0.3 0.2 0.1 0.0 0.0 0.0 0.0 0.0 0.0 0.0 0.0 0.0 0.0 0.0 0.0 0.2 0.2 0.0 0.0 0.0 2.1 1.3
nan 0.3 nan nan nan nan nan 0.0 0.4 7.2 6.1 2.1 3.6 0.3 0.3 0.3 0.5 0.5 0.1 0.0 0.0 0.4 2.9 3.9 3.3 2.2 1.8 2.0 0.1 0.2 1.2 0.7 0.2 0.1 0.1 0.0 0.0 0.0 0.0 0.0 0.0 0.0 0.0 0.0 0.0 0.0 0.0 0.0 0.0 0.0 0.0 0.0 0.0 0.0
0.1 0.0 nan nan nan nan 0.7 0.7 4.6 5.6 6.7 0.7 4.1 0.7 0.3 0.3 0.4 0.3 0.1 0.0 0.3 0.8 0.9 2.8 1.5 1.6 2.0 0.3 0.4 0.3 0.1 0.1 0.1 0.1 0.1 0.0 0.0 0.0 0.0 0.0 0.0 0.0 0.0 0.0 0.0 0.0 0.0 0.0 0.0 0.1 0.0 0.0 0.0 0.0
0.0 0.0 nan nan 0.0 0.8 8.5 5.2 0.9 4.2 2.6 0.5 0.2 0.2 0.2 0.3 0.1 0.0 0.0 0.0 0.0 0.0 0.9 1.1 2.6 2.3 1.3 0.2 0.2 0.2 0.2 0.1 0.1 0.2 0.1 0.0 0.0 0.0 0.0 0.0 0.0 0.0 0.0 0.0 0.0 0.1 0.1 0.0 0.1 0.0 0.1 0.1 0.1 0.1
nan nan nan nan nan 0.3 2.8 4.7 0.0 0.8 1.2 1.2 0.0 0.2 0.2 0.2 0.1 0.2 0.1 0.0 0.0 0.2 1.1 1.0 0.4 0.1 0.4 0.2 0.1 0.1 0.1 0.1 0.0 0.2 0.2 0.2 0.2 0.0 0.0 0.0 0.1 0.0 0.0 0.0 0.1 0.0 0.0 0.0 0.0 0.0 0.1 0.1 0.2 0.4
nan nan nan 0.0 0.9 0.1 0.0 1.8 0.3 0.8 0.5 0.8 0.3 0.0 1.8 0.3 0.7 1.3 1.3 0.0 1.2 0.7 0.7 0.2 0.2 0.2 0.1 0.2 0.1 0.1 0.1 0.0 0.1 0.0 0.1 0.2 0.2 0.1 0.1 0.1 0.1 0.1 0.1 0.1 0.2 0.2 0.1 0.1 0.1 0.0 0.9 2.0 0.8 0.6
0.0 nan 0.3 0.3 1.7 1.0 1.2 0.2 0.1 0.0 0.4 0.8 0.3 0.2 1.9 3.9 3.3 2.2 0.5 1.8 1.1 0.2 0.2 0.2 0.2 0.1 0.2 0.1 0.1 0.0 0.0 0.0 0.0 0.1 0.0 0.0 0.1 0.1 0.1 0.1 0.1 0.2 0.2 0.3 0.2 0.3 0.2 0.0 0.1 0.2 0.9 2.8 0.7 0.8
nan 0.2 0.7 1.0 3.9 9.2 20.8 0.1 1.0 0.1 1.6 1.2 0.5 1.1 1.7 2.4 1.7 0.1 3.6 0.7 0.3 0.2 0.1 0.2 0.0 0.0 0.1 0.0 0.0 0.0 0.0 0.0 0.0 0.1 0.1 0.1 0.0 0.1 0.1 0.1 0.1 0.4 0.5 0.3 0.2 0.3 0.4 0.1 0.6 2.2 1.1 1.6 1.7 7.0
nan 1.7 8.6 4.7 5.3 20.1 1.6 3.5 0.4 0.7 0.6 1.5 1.6 1.2 0.6 1.7 0.5 2.1 2.3 0.7 0.2 0.1 0.1 0.0 0.0 0.1 0.1 0.0 0.0 0.1 0.0 0.0 0.0 0.0 0.0 0.0 0.1 0.1 0.0 0.1 0.1 0.2 0.2 0.2 0.3 0.5 0.7 3.1 3.4 1.1 4.6 9.4 12.6 11.6
16.6 22.4 5.7 38.2 1.3 6.3 5.2 1.8 0.7 0.8 1.9 2.0 1.3 1.6 2.9 0.3 3.1 2.0 1.3 1.4 0.2 0.3 0.2 0.1 0.0 0.0 0.0 0.1 0.0 0.0 0.0 0.0 0.0 0.1 0.0 0.0 0.1 0.1 0.1 0.1 0.1 0.1 0.2 1.0 2.1 4.3 5.8 5.9 5.5 5.7 3.5 12.3 4.4 5.5
37.4 9.3 26.8 1.0 3.6 1.9 0.9 3.4 3.4 3.5 1.8 2.5 1.0 1.2 0.4 1.4 2.7 3.7 1.3 0.5 0.6 1.0 1.8 0.7 0.2 0.1 0.1 0.0 0.0 0.1 0.1 0.0 0.1 0.1 0.1 0.0 0.1 0.4 0.9 1.0 0.7 0.5 0.3 0.7 2.3 6.9 5.0 6.1 7.8 4.0 7.9 4.3 6.7 11.3
31.1 10.1 0.4 0.0 0.0 0.0 2.5 1.9 0.2 1.2 2.4 3.9 1.2 1.6 1.8 8.1 4.7 1.3 0.7 0.3 0.4 1.4 0.3 0.1 0.1 0.1 0.1 0.1 0.1 0.2 0.2 0.2 0.1 0.2 0.2 0.1 0.2 0.2 0.5 2.1 1.1 0.5 0.3 0.8 1.6 7.3 8.7 9.4 10.4 6.9 9.2 9.3 10.5 12.3
2.0 0.2 7.0 0.6 2.9 0.2 2.8 2.2 2.1 2.4 0.3 0.4 1.2 3.6 5.1 3.5 2.2 2.0 1.5 0.4 1.3 1.0 0.2 0.2 0.2 0.1 0.2 0.2 0.3 0.6 0.9 1.0 1.3 0.7 0.5 0.4 0.4 0.9 1.1 1.0 1.1 4.2 1.4 5.2 5.5 7.5 5.9 10.8 12.7 12.7 11.3 11.7 14.7 12.1
2.1 0.3 0.4 11.8 2.6 0.9 2.2 2.6 1.8 0.4 0.2 0.4 4.8 2.2 1.2 0.5 1.3 1.4 2.9 1.6 0.9 0.3 0.5 1.1 2.3 1.7 0.8 0.7 1.5 1.4 2.1 2.8 2.7 5.9 5.9 6.6 6.2 3.8 2.1 2.3 2.8 4.0 3.3 4.5 4.5 5.3 6.4 8.9 10.4 12.0 11.5 13.6 13.1 15.5
1.9 0.2 1.9 3.4 8.2 3.5 4.5 3.1 2.6 1.1 0.1 0.3 0.2 0.4 0.9 2.7 4.8 2.1 2.2 1.0 1.7 6.5 9.8 6.7 7.9 7.2 13.9 10.5 10.7 6.8 5.6 6.9 6.4 8.9 11.7 9.1 5.8 5.5 6.4 8.3 8.0 7.4 7.0 13.9 9.5 4.7 7.3 9.8 11.0 15.0 14.2 14.8 14.1 16.5
1.4 2.2 4.2 1.5 6.4 9.0 8.4 7.2 5.6 2.1 2.4 7.0 5.7 7.4 7.3 5.3 6.3 5.8 4.7 5.1 3.3 13.0 15.9 20.4 19.3 16.7 15.4 11.2 16.9 16.8 11.8 13.7 6.2 3.7 3.4 6.2 7.7 10.1 10.6 9.4 9.0 10.4 11.3 11.6 15.6 12.4 12.5 15.1 14.5 16.3 13.6 13.3 14.9 16.1
4.9 9.7 14.4 9.1 12.6 16.3 4.7 14.0 10.9 10.5 12.7 13.1 16.9 12.1 15.5 13.1 9.3 8.6 11.1 13.1 14.2 16.2 6.6 10.6 18.7 8.6 6.3 5.4 11.0 7.8 7.4 6.2 6.5 6.8 5.9 8.7 10.0 11.5 6.4 5.5 14.3 14.2 12.3 14.2 12.0 13.6 11.8 15.0 15.9 17.1 16.8 16.0 16.4 15.0
17.3 12.2 8.6 10.0 20.5 9.7 10.2 11.2 2.4 12.5 11.6 15.0 18.4 14.9 14.8 12.3 10.6 12.7 4.5 11.1 14.7 11.9 10.0 12.3 12.5 13.9 7.8 6.9 6.6 8.1 8.0 7.8 9.2 8.8 7.8 7.7 7.7 8.0 9.0 13.0 15.5 13.2 8.6 12.2 14.2 14.2 11.9 9.6 12.7 13.0 15.3 18.3 17.7 17.1
Water_Equivalent
nan nan nan nan nan nan nan nan nan nan nan nan nan nan nan nan nan 0.00 0.00 0.00 0.00 0.02 0.04 0.00 0.00 0.00 0.00 0.00 0.12 0.00 0.17 0.09 0.09 0.12 0.32 0.22 0.13 0.00 0.01 0.01 0.00 0.01 0.10 0.20 0.14 0.53 0.50 0.00 0.00 0.00 0.02 0.00 0.00 0.00
nan nan nan nan nan nan nan nan nan nan nan nan nan nan nan nan nan nan 0.00 0.00 0.00 0.00 0.15 0.00 0.00 0.00 0.00 0.00 0.00 0.00 0.02 0.00 0.00 0.08 0.18 0.14 0.15 0.05 0.01 0.17 0.00 0.10 0.01 0.10 0.02 0.06 0.00 0.00 0.00 0.00 0.00 0.00 0.00 0.00
nan nan nan nan nan nan nan nan nan nan nan nan nan nan nan nan nan nan 0.00 0.00 0.00 0.09 0.14 0.06 0.05 0.00 0.00 0.00 0.00 0.05 0.00 0.00 0.00 0.00 0.01 0.03 0.19 0.00 0.16 0.03 0.00 0.00 0.00 0.03 0.01 0.00 0.00 0.00 0.00 0.00 0.00 0.00 0.00 0.00
nan nan nan nan nan nan nan nan nan nan nan nan nan nan nan nan nan nan 0.00 0.00 0.00 0.00 1.02 0.39 0.00 0.00 0.00 0.00 0.00 0.00 0.00 0.00 0.00 0.00 0.06 0.19 0.28 0.00 0.03 0.02 0.01 0.01 0.00 0.00 0.00 0.00 0.00 0.00 0.00 0.00 0.00 0.00 0.00 0.00
nan nan nan nan nan nan nan nan nan nan nan nan nan nan nan nan nan nan 0.00 0.00 0.00 0.06 1.23 0.36 0.00 0.00 0.00 0.00 0.00 0.00 0.00 0.00 0.00 0.02 0.17 0.23 0.00 0.02 0.03 0.03 0.04 0.00 0.00 0.09 0.07 0.00 0.00 0.00 0.00 0.00 0.00 0.00 0.00 0.00
nan nan nan nan nan nan nan nan nan nan nan nan nan nan nan nan nan 0.00 0.12 0.00 0.00 0.00 0.40 1.04 0.16 0.00 0.00 0.00 0.00 0.00 0.00 0.00 0.00 0.01 0.08 0.01 0.00 0.02 0.15 0.11 0.00 0.00 0.00 0.00 0.00 0.00 0.00 0.00 0.00 0.00 0.00 0.00 0.00 0.00
nan nan nan nan nan nan nan nan nan nan nan nan nan nan nan nan 0.00 0.00 0.01 0.00 nan 0.00 0.76 2.22 0.66 0.03 0.00 0.00 0.00 0.01 0.00 0.00 0.00 0.05 0.12 0.05 0.01 0.01 0.14 0.09 0.00 0.00 0.00 0.00 0.00 0.00 0.00 0.00 0.00 0.00 0.00 0.00 0.00 0.00
nan nan nan nan nan nan nan nan nan nan nan nan nan nan nan nan nan 0.00 0.00 nan nan 0.00 0.14 1.64 1.01 0.11 0.00 0.13 0.18 0.00 0.09 0.03 0.06 0.08 0.06 0.03 0.01 0.06 0.17 0.00 0.00 0.00 0.00 0.00 0.00 0.00 0.00 0.00 0.00 0.00 0.00 0.00 0.00 0.00
nan nan nan nan nan nan nan nan nan nan nan nan nan nan 0.00 0.00 0.04 0.00 nan nan 0.00 0.08 1.59 0.72 0.27 1.11 0.00 0.03 0.04 0.09 0.05 0.57 0.05 0.20 0.03 0.00 0.06 0.18 0.00 0.00 0.00 0.00 0.00 0.00 0.00 0.00 0.00 0.00 0.00 0.00 0.00 0.00 0.00 0.00
nan nan nan nan nan nan nan nan nan nan nan nan 0.00 0.09 8.58 0.10 nan nan 0.00 0.17 0.26 0.09 0.10 0.26 0.00 0.19 0.05 0.07 0.29 0.35 0.18 0.61 0.91 0.24 0.00 0.08 0.01 0.00 0.00 0.00 0.00 0.00 0.00 0.00 0.00 0.00 0.00 0.00 0.00 0.00 0.00 0.00 0.00 0.00
nan nan nan nan nan nan nan nan nan nan nan 0.00 5.41 3.31 0.03 nan 0.01 0.46 6.65 5.04 4.60 3.10 0.11 0.01 0.00 0.15 0.00 0.28 0.35 0.05 0.48 0.54 1.00 0.23 0.25 0.22 0.11 0.09 0.00 0.00 0.00 0.00 0.00 0.00 0.00 0.00 0.00 0.00 0.00 0.00 0.00 0.00 0.00 0.00
nan nan nan nan nan nan nan nan nan 0.00 0.00 0.05 0.07 0.00 0.00 0.76 3.27 5.45 3.14 2.19 1.07 0.49 0.04 0.00 0.00 0.02 0.05 0.00 0.21 0.37 0.37 0.36 0.24 0.02 0.77 0.31 0.06 0.00 0.00 0.00 0.00 0.00 0.00 0.00 0.00 0.00 0.00 0.00 0.00 0.00 0.00 0.00 0.00 0.00
nan nan nan nan nan nan nan nan nan nan nan 0.00 0.12 1.74 2.36 3.84 8.86 2.55 2.59 1.31 0.77 0.12 0.04 0.01 0.22 0.01 0.07 0.02 0.17 0.18 0.49 1.23 0.01 1.07 0.12 0.07 0.01 0.00 0.00 0.00 0.00 0.00 0.00 0.00 0.00 0.00 0.00 0.00 0.00 0.00 0.00 0.00 0.00 0.00
nan nan nan nan nan nan nan nan nan 0.00 0.00 1.20 2.86 8.14 3.17 2.41 0.65 0.16 0.06 0.09 0.05 0.03 0.01 0.03 0.13 0.14 0.03 0.41 0.14 0.27 0.07 0.05 1.02 0.18 0.16 0.09 0.01 0.00 0.00 0.00 0.00 0.00 0.00 0.00 0.00 0.00 0.00 0.00 0.00 0.00 0.02 0.08 0.06 0.09
nan nan nan nan nan nan nan nan nan 0.00 0.04 2.04 0.92 3.39 0.96 0.10 0.07 0.06 0.02 0.01 0.00 0.00 0.06 0.15 0.18 0.20 0.42 0.57 0.17 0.12 0.59 0.39 0.11 0.14 0.09 0.04 0.00 0.00 0.00 0.00 0.00 0.00 0.00 0.00 0.00 0.00 0.03 0.05 0.02 0.03 0.09 0.00 0.01 0.52
nan nan 0.00 nan nan nan nan nan 0.00 0.00 0.32 0.62 0.60 0.42 0.09 0.30 0.58 0.25 0.08 0.05 0.00 0.05 0.01 0.11 0.40 0.98 0.62 0.21 0.19 0.05 0.03 0.08 0.11 0.07 0.02 0.01 0.00 0.00 0.00 0.00 0.00 0.00 0.00 0.00 0.00 0.00 0.00 0.08 0.08 0.00 0.00 0.01 0.63 0.38
nan 0.13 nan nan nan nan nan 0.01 0.16 1.56 1.19 0.38 1.28 0.11 0.13 0.11 0.20 0.15 0.02 0.00 0.00 0.09 0.65 0.75 0.48 0.34 0.44 0.38 0.01 0.08 0.36 0.20 0.07 0.05 0.02 0.00 0.00 0.00 0.00 0.00 0.01 0.00 0.00 0.00 0.00 0.00 0.00 0.00 0.00 0.00 0.00 0.00 0.00 0.00
0.03 0.00 nan nan nan nan 0.25 0.21 1.02 1.14 1.19 0.23 1.35 0.27 0.12 0.12 0.16 0.11 0.05 0.00 0.07 0.20 0.18 0.51 0.29 0.24 0.44 0.06 0.14 0.08 0.05 0.04 0.03 0.06 0.05 0.01 0.00 0.00 0.00 0.00 0.00 0.00 0.00 0.00 0.00 0.00 0.00 0.00 0.00 0.05 0.00 0.00 0.01 0.01
0.00 0.00 nan nan 0.00 0.28 2.33 1.14 0.18 0.76 0.67 0.17 0.10 0.07 0.07 0.10 0.05 0.01 0.00 0.00 0.01 0.00 0.22 0.24 0.41 0.40 0.27 0.06 0.07 0.07 0.07 0.04 0.05 0.06 0.04 0.00 0.00 0.00 0.00 0.00 0.00 0.00 0.00 0.00 0.00 0.03 0.03 0.00 0.02 0.02 0.02 0.02 0.04 0.04
nan nan nan nan nan 0.06 0.53 1.03 0.00 0.16 0.29 0.32 0.02 0.06 0.09 0.09 0.04 0.09 0.06 0.02 0.00 0.06 0.27 0.22 0.10 0.06 0.11 0.06 0.04 0.04 0.03 0.03 0.01 0.06 0.08 0.09 0.08 0.00 0.00 0.02 0.04 0.01 0.01 0.00 0.03 0.01 0.01 0.00 0.00 0.00 0.03 0.05 0.08 0.13
nan nan nan 0.00 0.33 0.02 0.01 0.39 0.06 0.20 0.14 0.21 0.08 0.00 0.40 0.10 0.20 0.37 0.43 0.02 0.36 0.21 0.17 0.07 0.09 0.09 0.02 0.08 0.04 0.03 0.04 0.00 0.02 0.01 0.04 0.08 0.07 0.03 0.04 0.04 0.04 0.05 0.05 0.05 0.09 0.07 0.03 0.05 0.04 0.02 0.35 0.80 0.30 0.21
0.01 nan 0.09 0.09 0.30 0.19 0.27 0.04 0.02 0.00 0.12 0.20 0.07 0.05 0.42 1.03 0.86 0.54 0.15 0.39 0.24 0.09 0.08 0.07 0.09 0.05 0.07 0.03 0.06 0.00 0.00 0.00 0.00 0.02 0.01 0.01 0.05 0.04 0.05 0.06 0.05 0.09 0.08 0.10 0.07 0.13 0.07 0.01 0.05 0.09 0.33 1.06 0.25 0.30
nan 0.05 0.12 0.19 0.81 1.28 2.61 0.02 0.15 0.02 0.31 0.30 0.13 0.22 0.38 0.48 0.38 0.03 0.74 0.17 0.10 0.09 0.06 0.06 0.01 0.00 0.03 0.00 0.00 0.00 0.00 0.00 0.01 0.04 0.05 0.03 0.01 0.04 0.05 0.06 0.06 0.17 0.16 0.10 0.07 0.10 0.14 0.03 0.21 0.83 0.44 0.58 0.62 2.36
nan 0.31 1.91 1.02 0.86 3.25 0.38 1.05 0.09 0.14 0.17 0.30 0.33 0.20 0.13 0.35 0.13 0.40 0.41 0.17 0.09 0.06 0.06 0.00 0.01 0.04 0.02 0.00 0.01 0.02 0.01 0.00 0.00 0.00 0.01 0.01 0.03 0.05 0.02 0.02 0.06 0.06 0.06 0.07 0.10 0.17 0.22 1.10 1.13 0.35 1.60 3.48 4.55 3.82
2.62 4.05 1.55 4.38 0.36 1.78 1.44 0.51 0.12 0.18 0.53 0.46 0.27 0.38 0.85 0.09 0.66 0.43 0.22 0.28 0.09 0.12 0.08 0.05 0.01 0.00 0.00 0.02 0.00 0.01 0.00 0.00 0.00 0.03 0.02 0.01 0.05 0.05 0.04 0.02 0.04 0.04 0.06 0.37 0.75 1.54 1.99 2.05 2.06 2.02 1.18 4.41 1.33 1.73
5.56 3.23 3.30 0.33 1.31 0.55 0.24 1.00 1.02 1.12 0.55 0.67 0.26 0.27 0.15 0.44 0.58 0.72 0.25 0.17 0.20 0.23 0.67 0.25 0.10 0.05 0.04 0.00 0.02 0.04 0.04 0.02 0.02 0.05 0.04 0.01 0.03 0.15 0.28 0.30 0.20 0.15 0.11 0.27 0.86 2.53 1.77 2.24 2.80 1.26 2.68 1.39 2.12 3.73
4.15 3.14 0.10 0.00 0.01 0.00 0.86 0.69 0.06 0.40 0.69 1.08 0.36 0.54 0.64 2.01 1.27 0.27 0.19 0.11 0.14 0.28 0.09 0.06 0.05 0.04 0.05 0.05 0.05 0.08 0.07 0.07 0.04 0.07 0.06 0.05 0.06 0.07 0.19 0.68 0.30 0.17 0.12 0.32 0.65 2.91 3.22 3.26 3.58 2.25 2.95 3.11 3.50 3.93
0.47 0.06 1.40 0.25 1.07 0.08 0.87 0.60 0.60 0.71 0.08 0.12 0.38 0.99 1.47 1.02 0.54 0.45 0.34 0.15 0.33 0.21 0.08 0.08 0.07 0.05 0.07 0.09 0.11 0.19 0.30 0.32 0.40 0.25 0.18 0.14 0.13 0.28 0.32 0.32 0.33 1.38 0.48 1.81 2.18 2.87 2.15 3.76 4.29 4.26 3.67 3.72 4.33 3.84
0.58 0.12 0.15 1.76 0.67 0.27 0.64 0.80 0.55 0.15 0.09 0.16 1.56 0.64 0.34 0.15 0.37 0.34 0.60 0.38 0.24 0.14 0.20 0.38 0.63 0.66 0.28 0.23 0.51 0.44 0.66 0.85 0.77 1.27 1.59 1.50 1.57 1.02 0.54 0.63 0.76 1.15 1.01 1.41 1.49 1.71 2.02 2.81 3.40 3.87 3.96 4.39 4.12 4.67
0.50 0.09 0.62 0.92 1.26 0.73 1.31 0.93 0.88 0.40 0.04 0.11 0.08 0.12 0.20 0.62 1.13 0.50 0.55 0.33 0.55 2.10 3.59 2.43 2.52 2.28 4.16 2.81 2.39 1.66 1.59 2.16 1.86 2.74 3.23 2.21 1.52 1.39 1.68 2.35 2.33 2.20 2.07 4.70 2.56 1.10 2.28 2.87 3.50 4.59 3.98 3.63 3.86 4.25
0.30 0.72 1.27 0.39 1.47 2.57 2.49 2.55 2.18 0.78 0.89 2.48 2.05 2.32 1.82 1.17 1.45 1.23 0.98 1.24 1.02 4.82 5.35 5.87 5.57 5.59 4.42 2.74 4.55 4.09 2.59 3.93 1.51 0.91 0.87 1.54 1.99 2.78 2.99 2.56 2.56 3.08 3.35 3.24 4.30 2.93 2.76 3.52 3.79 3.97 2.81 2.61 2.68 2.84
1.52 3.11 2.90 1.71 2.69 4.59 1.53 4.83 3.66 3.30 4.24 3.90 4.83 3.83 4.53 3.60 2.08 1.70 2.25 3.10 3.90 4.43 2.16 3.10 5.29 2.12 1.78 1.54 3.19 2.19 2.43 1.37 1.43 1.50 1.50 2.09 2.56 3.05 1.63 1.36 3.97 3.96 3.23 3.68 3.02 3.20 2.62 3.37 3.26 3.66 3.18 2.92 2.74 2.42
5.32 3.53 2.32 2.27 4.89 2.57 2.91 3.52 0.74 3.49 2.93 3.70 4.58 3.86 3.89 2.97 1.99 2.48 0.99 2.83 3.72 3.54 2.77 3.82 3.95 4.78 2.24 1.91 1.69 1.98 2.36 1.77 2.41 2.92 2.56 2.54 2.56 2.51 2.12 3.41 4.22 3.27 1.97 2.87 3.29 2.99 2.60 1.95 2.15 2.48 2.62 3.04 2.80 2.59
SL_Ratio
nan nan nan nan nan nan nan nan nan nan nan nan nan nan nan nan nan nan nan nan nan 3.8 2.5 nan nan 3.1 nan nan 4.0 2.5 3.0 2.5 2.5 2.8 3.0 3.1 3.6 6.7 2.9 3.1 nan 2.8 3.2 3.2 3.2 3.5 4.5 nan nan 2.9 2.6 nan nan nan
nan nan nan nan nan nan nan nan nan nan nan nan nan nan nan nan nan nan nan nan nan nan 2.6 nan nan nan nan nan 2.0 nan 4.4 nan 2.5 2.6 2.6 2.9 3.8 4.8 5.6 3.7 nan 3.1 3.4 2.9 3.0 3.0 nan nan nan nan nan nan nan nan
nan nan nan nan nan nan nan nan nan nan nan nan nan nan nan nan nan nan nan nan nan 2.5 2.5 2.6 2.5 nan nan nan nan 3.2 2.9 nan nan nan 3.0 4.4 5.5 2.5 4.2 4.3 3.6 nan nan 2.5 3.0 nan nan nan nan nan nan nan nan nan
nan nan nan nan nan nan nan nan nan nan nan nan nan nan nan nan nan nan nan nan nan 0.0 3.6 2.8 nan nan nan nan nan nan nan nan nan nan 3.5 3.6 3.8 nan 2.6 2.5 2.6 2.6 nan 3.3 nan nan nan nan nan nan nan nan nan nan
nan nan nan nan nan nan nan nan nan nan nan nan nan nan nan nan nan nan nan nan nan 3.2 3.7 3.2 0.0 nan nan nan nan nan nan nan nan 2.9 3.3 4.0 5.0 3.2 2.6 2.8 3.2 nan nan 2.7 2.6 nan nan nan nan nan nan nan nan nan
nan nan nan nan nan nan nan nan nan nan nan nan nan nan nan nan nan nan 2.5 nan nan nan 3.3 4.3 2.5 nan nan nan nan nan nan nan nan 3.1 2.7 2.8 nan 2.7 3.0 3.3 nan nan nan nan nan nan nan nan nan nan nan nan nan nan
nan nan nan nan nan nan nan nan nan nan nan nan nan nan nan nan nan nan 3.0 nan nan nan 3.1 4.9 4.4 2.6 nan nan 2.3 2.6 nan nan nan 2.7 2.6 2.6 2.4 2.6 2.7 3.3 nan nan nan nan nan nan nan nan nan nan nan nan nan nan
nan nan nan nan nan nan nan nan nan nan nan nan nan nan nan nan nan nan nan nan nan 2.7 4.0 4.8 4.2 3.1 nan 2.5 2.6 2.5 2.5 2.5 2.6 2.6 2.7 2.9 2.6 2.6 3.6 nan nan nan nan nan nan nan nan nan nan nan nan nan nan nan
nan nan nan nan nan nan nan nan nan nan nan nan nan nan nan nan 2.5 5.0 nan nan nan 4.0 4.8 5.0 4.4 3.6 nan 2.5 2.6 2.5 2.5 3.4 2.8 3.3 3.3 nan 3.1 2.8 0.0 nan nan nan nan nan nan nan nan nan nan nan nan nan nan nan
nan nan nan nan nan nan nan nan nan nan nan nan nan 2.5 2.5 2.5 nan nan 2.3 2.5 2.8 2.5 3.0 4.9 nan 3.4 2.5 2.5 2.6 2.7 2.7 4.0 4.8 4.7 3.3 3.0 4.0 nan nan nan nan nan nan nan nan nan nan nan nan nan nan nan nan nan
nan nan nan nan nan nan nan nan nan nan nan nan 2.5 2.8 2.5 nan 2.4 3.1 3.7 4.0 3.8 4.5 3.5 3.0 nan 3.1 nan 3.3 3.5 3.0 3.8 3.5 4.9 3.3 4.1 4.3 3.0 2.5 nan nan nan nan nan nan nan nan nan nan nan nan nan nan nan nan
nan nan nan nan nan nan nan nan nan nan nan 2.5 2.5 nan 2.5 3.3 4.1 4.9 5.4 5.3 5.4 5.7 3.7 nan 0.0 2.6 2.5 nan 3.0 4.5 4.9 4.3 6.7 2.6 3.9 3.9 2.7 nan nan nan nan nan nan nan nan nan nan nan nan nan nan nan nan nan
nan nan nan nan nan nan nan nan nan nan nan nan 3.8 3.3 4.3 4.7 5.5 6.1 6.7 5.9 4.3 3.4 2.7 3.3 2.9 2.8 2.5 2.4 3.5 4.1 4.9 3.6 3.5 3.4 3.9 3.0 2.7 nan nan nan nan nan nan nan nan nan nan nan nan nan nan nan nan nan
nan nan nan nan nan nan nan nan nan nan nan 4.3 4.9 5.3 4.4 5.2 5.2 3.8 2.9 4.5 2.9 3.2 5.4 5.2 5.3 4.5 2.9 3.7 3.4 5.9 3.6 2.8 3.4 4.3 3.6 2.9 2.9 nan nan nan nan nan nan nan nan nan nan nan nan nan 2.5 2.5 2.8 3.4
nan nan nan nan nan nan nan nan nan nan 2.9 5.2 5.5 7.6 3.7 2.8 2.5 2.5 3.1 2.5 2.0 nan 5.3 5.3 3.7 4.3 4.6 4.6 4.2 5.1 3.2 3.0 2.7 3.2 3.0 2.5 nan nan nan nan nan nan 5.0 nan nan nan 2.6 2.8 2.7 2.9 3.1 2.5 2.9 3.5
nan nan nan nan nan nan nan nan nan 2.5 4.5 5.0 5.9 5.2 2.5 2.6 2.5 2.6 2.6 3.2 nan 4.8 4.9 4.2 4.9 4.9 5.8 4.7 5.6 3.4 3.1 2.9 3.0 2.8 2.6 2.3 nan nan nan nan nan nan nan nan nan nan nan 3.1 3.1 nan nan 2.9 3.3 3.3
nan 2.5 nan nan nan nan nan 3.4 2.6 4.6 5.1 5.6 2.8 2.6 2.5 2.7 2.6 3.4 2.5 5.6 0.0 4.6 4.5 5.3 6.9 6.5 4.2 5.1 5.2 3.0 3.3 3.2 2.7 2.5 2.4 nan nan nan nan nan 2.5 nan nan nan nan nan nan nan nan nan nan nan 0.0 2.9
2.8 nan nan nan nan nan 2.8 3.2 4.5 4.9 5.6 3.2 3.1 2.5 2.5 2.5 2.5 2.5 2.5 nan 4.0 3.9 4.8 5.5 5.2 6.6 4.5 5.4 2.8 3.4 2.5 2.5 2.5 2.5 2.5 2.4 nan nan nan nan nan nan nan nan nan nan nan nan 3.3 2.6 nan 5.0 2.6 2.6
nan nan nan nan nan 2.7 3.7 4.5 5.1 5.5 3.9 2.6 2.5 2.5 2.5 2.5 2.5 2.4 nan nan 3.5 0.0 3.9 4.7 6.5 5.6 4.7 3.2 2.7 2.6 2.6 2.5 2.5 2.5 2.5 nan nan nan nan nan nan nan nan nan nan 2.7 2.6 nan 2.7 2.6 2.7 2.8 2.8 3.0
nan nan nan nan nan 5.2 5.3 4.6 nan 5.0 4.2 3.7 2.5 2.6 2.6 2.6 2.8 2.5 2.5 2.4 nan 2.5 4.1 4.8 3.7 2.6 3.8 2.8 2.5 2.5 2.5 2.5 2.5 2.7 2.9 2.6 2.5 nan nan 2.6 2.5 2.7 2.6 2.5 2.5 2.4 2.7 0.0 nan 2.7 2.9 3.0 2.9 3.1
nan nan nan 3.3 2.8 5.8 4.4 4.7 5.1 3.9 3.3 3.7 3.3 2.7 4.4 2.9 3.3 3.4 2.9 2.6 3.4 3.4 4.2 2.5 2.5 2.5 2.5 2.5 2.5 2.4 2.5 nan 2.5 2.5 2.5 2.9 2.5 2.5 2.5 2.5 2.5 2.5 2.5 2.5 2.5 2.5 2.5 2.5 2.6 2.5 2.5 2.5 2.6 2.6
2.9 nan 3.5 3.8 5.6 5.1 4.5 6.0 4.8 5.0 3.6 4.1 4.1 3.1 4.4 3.8 3.9 4.0 3.3 4.5 4.4 2.7 2.5 2.5 2.5 2.5 2.5 2.5 2.5 3.3 nan nan nan 2.5 2.6 2.5 2.6 2.5 2.5 2.5 2.5 2.6 2.5 2.5 2.5 2.5 2.5 2.4 2.5 2.5 2.7 2.6 2.8 2.8
nan 4.7 5.8 5.5 4.8 7.2 8.0 6.3 6.4 3.5 5.2 4.1 3.9 4.8 4.5 5.1 4.4 4.3 4.9 4.0 2.8 2.5 2.5 2.5 2.5 nan 2.5 nan nan nan nan nan 2.6 2.5 2.5 2.5 2.4 2.5 2.5 2.6 2.5 2.6 2.9 2.9 2.7 2.6 2.9 2.7 2.9 2.7 2.6 2.7 2.8 3.0
nan 5.4 4.5 4.6 6.2 6.2 4.3 3.3 4.6 5.0 3.8 5.0 5.0 6.1 4.7 4.9 3.7 5.2 5.5 4.3 2.6 2.5 2.5 nan 2.7 2.5 2.5 nan 2.5 2.4 2.3 nan nan 2.5 2.5 2.4 2.5 2.7 2.5 2.5 2.5 2.6 2.6 2.8 2.8 2.9 3.0 2.8 3.0 3.2 2.9 2.7 2.8 3.0
6.3 5.5 3.7 8.7 3.5 3.6 3.6 3.6 5.3 4.3 3.7 4.3 4.7 4.3 3.4 3.6 4.6 4.7 6.1 5.0 2.6 2.7 2.5 2.5 2.6 nan 2.5 2.6 nan 2.5 nan nan 3.1 2.6 2.4 2.6 2.5 2.6 2.6 2.7 2.7 2.7 2.5 2.7 2.8 2.8 2.9 2.9 2.7 2.8 3.0 2.8 3.3 3.2
6.7 2.9 8.1 3.0 2.8 3.5 3.8 3.5 3.4 3.1 3.3 3.7 4.0 4.5 3.1 3.2 4.7 5.2 5.3 3.2 2.9 4.3 2.6 2.7 2.5 2.5 2.5 nan 2.5 2.5 2.5 2.5 2.4 2.5 2.5 2.6 2.5 2.5 3.0 3.3 3.3 3.0 2.6 2.6 2.7 2.7 2.8 2.7 2.8 3.2 3.0 3.1 3.2 3.0
7.5 3.2 3.8 0.0 2.4 3.3 2.9 2.7 3.1 3.0 3.5 3.6 3.2 3.0 2.8 4.0 3.7 4.6 3.6 2.6 3.2 4.8 3.1 2.5 2.5 2.5 2.5 2.5 2.5 2.6 2.5 2.5 2.5 2.6 2.5 2.5 2.5 2.5 2.7 3.1 3.5 3.1 2.6 2.5 2.5 2.5 2.7 2.9 2.9 3.1 3.1 3.0 3.0 3.1
4.2 3.7 5.0 2.5 2.7 2.5 3.2 3.6 3.4 3.4 3.2 3.0 3.1 3.6 3.5 3.4 4.0 4.6 4.2 3.0 4.0 4.7 2.5 2.5 2.5 2.5 2.5 2.5 2.8 3.0 3.0 3.1 3.3 3.0 2.8 2.7 2.8 3.3 3.5 3.2 3.2 3.0 3.0 2.9 2.5 2.6 2.8 2.9 3.0 3.0 3.1 3.2 3.4 3.1
3.6 2.5 2.6 6.7 3.9 3.2 3.5 3.3 3.3 3.1 2.8 2.5 3.0 3.4 3.7 3.6 3.6 4.0 4.9 4.3 3.6 2.5 2.7 3.0 3.6 2.6 2.9 2.9 3.0 3.1 3.3 3.3 3.6 4.6 3.7 4.4 3.9 3.7 3.8 3.6 3.7 3.5 3.3 3.2 3.0 3.1 3.2 3.2 3.1 3.1 2.9 3.1 3.2 3.3
3.8 2.5 3.1 3.7 6.4 4.8 3.4 3.3 3.0 2.7 2.6 2.5 2.6 3.4 4.2 4.3 4.2 4.3 4.0 3.0 3.1 3.1 2.7 2.8 3.1 3.1 3.4 3.7 4.5 4.1 3.5 3.2 3.5 3.2 3.6 4.1 3.8 3.9 3.8 3.5 3.4 3.4 3.4 3.0 3.7 4.2 3.2 3.4 3.1 3.3 3.6 4.1 3.6 3.9
4.6 3.0 3.3 3.9 4.3 3.5 3.4 2.8 2.6 2.7 2.6 2.8 2.8 3.2 4.0 4.5 4.3 4.7 4.7 4.1 3.2 2.7 3.0 3.5 3.5 3.0 3.5 4.1 3.7 4.1 4.6 3.5 4.1 4.0 3.9 4.1 3.9 3.6 3.6 3.7 3.5 3.4 3.4 3.6 3.6 4.2 4.5 4.3 3.8 4.1 4.8 5.1 5.5 5.7
3.2 3.1 5.0 5.3 4.7 3.5 3.0 2.9 3.0 3.2 3.0 3.4 3.5 3.2 3.4 3.6 4.5 5.0 4.9 4.2 3.6 3.7 3.1 3.4 3.5 4.0 3.6 3.5 3.4 3.6 3.1 4.5 4.6 4.5 3.9 4.1 3.9 3.8 3.9 4.1 3.6 3.6 3.8 3.9 4.0 4.2 4.5 4.4 4.9 4.7 5.3 5.5 6.0 6.2
3.2 3.5 3.7 4.4 4.2 3.8 3.5 3.2 3.2 3.6 4.0 4.1 4.0 3.9 3.8 4.1 5.3 5.1 4.5 3.9 3.9 3.4 3.6 3.2 3.2 2.9 3.5 3.6 3.9 4.1 3.4 4.4 3.8 3.0 3.0 3.0 3.0 3.2 4.2 3.8 3.7 4.0 4.4 4.3 4.3 4.7 4.6 4.9 5.9 5.2 5.8 6.0 6.3 6.6